Tracking 31027 objects as of 19-Jul-2025
HD Live streaming from Space Station
objects crossing your sky now

DELTA 1 DEB

Track DELTA 1 DEB now!
10-day predictions


NORAD ID: 37637
Int'l Code: 1978-026HY
Perigee: 859.6 km
Apogee: 968.6 km
Inclination: 98.9 °
Period: 103.1 minutes
Semi major axis: 7285 km
RCS: 0.0061 m2 (small)
Launch date: March 5, 1978
Source: United States (US)
Launch site: AIR FORCE WESTERN TEST RANGE (AFWTR)

Note: This is SATELLITE DEBRIS
Your satellite tracking list
FLOCK 4X 28
Track 1 satellite(s)




NASA's NSSDC Master Catalog

Two Line Element Set (TLE):
1 37637U 78026HY  25198.10322909  .00000283  00000-0  23106-3 0  9998
2 37637  98.9353 148.6343 0074830  59.6558 301.1978 13.96214502148357
Source of the keplerian elements: AFSPC